map of AHU home
Great Circle Mapper logo
AHU - Airport
Location
City:  Al Hoceima, Morocco
Name:Cherif al Idrissi
ICAO / IATA:GMTA / AHU

Details
Type:Airport (Aerodrome, Airfield)
Use:Public/Civil, International (customs port of entry)
Latitude:3510'38"N (35.177103)
Longitude:350'22"W (-3.839524)
Datum:WGS 1984
Elevation:95 ft (29 m)
Variation:0.95W (WMM2015 magnetic declination)
0.11 annual change
Runways:1
Longest:8202 × 148 ft (2500 × 45 m), paved

Time
Time Zone:UTC+0 (DST+1)
Local Time:

Weather
METAR:GMTA 291200Z 02008KT 8000 SCT010 BKN026 30/24 Q1016 NOSIG
TAF:GMTA 291100Z 2912/3018 05012KT 8000 FEW010 SCT050 BKN100
BECMG 2919/2922 VRB02KT PROB40
TEMPO 3000/3006 -RA 5000 BKN020 BKN050
BECMG 3010/3012 06010KT

Related Locations
Nearby:
Farthest:NZOX: 12354 mi / 19882 km
Okiwi Station, NZ

Find:

   beyond  
but within

Other Information
Maps:
NOTAMs:
Links:
Sources:

  
flag of Morocco   

Sectional Chart

Flight Planning
at skyvector.com

Satellite Image

Google Maps Satellite view

 

Copyright © 2004-2015 Karl L. Swartz. All rights reserved.
The Great Circle Mapper name and logo are trademarks of the Great Circle Mapper.
All other trademarks mentioned herein belong to their respective owners.
Please see credits for attibutions and further copyright information.

  Follow gcmap on Facebook Follow gcmap on Twitter Follow gcmap on Google+

hCard Microformat

Geo Microformat